Location: Namasale
(1.5000°N, 32.6167°E)
Time: 10:10:33
(UTC+00:00)

Courier 1B - Pass Details

Date: 28 April 2021
Orbit: 962 x 1209 km, 28.3° (Epoch: 15 May)

Event Time Altitude Azimuth Distance (km) Brightness Sun altitude
Rises 12:16:03 0° 324° (NW) 3,687 11.0 51.0°
Reaches altitude 10° 12:19:46 10° 344° (NNW) 2,709 10.3 50.2°
Maximum altitude 12:23:52 17° 23° (NNE) 2,211 9.6 49.2°
Drops below altitude 10° 12:27:56 10° 63° (ENE) 2,682 9.6 48.2°
Sets 12:31:34 0° 82° (E) 3,634 10.1 47.4°
